Theta_e
308 310 309 308 308 308 309 309 310 312 315 317 320 323 324 323 323 319 318 321 321 319 320 319 316 322 321 322 322 324 326 327 327 326 326 327 328 327 329 329 334 333 333 333 329 334 337 334 334 334 331 336 337 336
307 309 311 310 309 307 307 308 309 310 313 316 318 322 324 324 324 320 318 320 321 321 323 322 322 321 320 319 321 323 326 324 325 328 329 330 335 328 328 330 327 334 330 332 331 331 329 334 333 333 335 333 334 334
306 309 310 311 309 307 307 309 309 309 310 313 317 322 324 324 324 321 319 321 321 319 321 322 323 322 320 318 319 321 325 323 323 321 326 329 334 325 327 329 328 327 329 331 331 333 333 333 332 332 334 335 335 334
306 308 310 311 309 308 308 308 309 309 310 312 315 321 324 325 324 322 315 318 317 319 319 321 322 323 322 321 320 318 321 322 319 321 325 323 327 324 324 323 324 325 326 328 332 335 336 336 334 332 333 335 336 334
306 309 311 310 310 309 307 307 309 309 310 313 317 321 324 325 324 321 315 315 316 317 318 319 320 322 322 321 320 320 319 318 318 319 321 323 323 321 319 321 323 326 328 328 328 332 334 335 336 335 334 334 336 334
306 309 311 310 310 311 308 307 309 309 312 317 319 321 323 324 321 315 312 313 315 317 317 314 319 321 322 322 320 319 319 319 320 320 319 323 324 323 322 323 324 329 330 331 334 335 334 334 333 334 334 334 333 333
308 311 311 310 310 309 308 307 308 310 315 317 319 321 322 323 318 316 319 319 317 318 317 317 316 322 321 322 321 321 323 321 320 320 318 319 321 321 318 323 324 329 327 329 330 331 333 330 332 333 332 332 332 332
310 311 311 311 311 308 307 308 309 312 316 318 319 320 321 321 313 318 321 320 319 319 319 315 315 320 322 322 323 324 323 321 320 320 319 319 319 318 318 319 322 322 323 322 323 327 328 328 330 331 333 332 330 330
311 311 311 310 308 307 308 308 310 314 316 317 318 318 314 314 315 317 317 318 318 319 319 318 317 321 322 324 324 323 322 319 321 317 316 317 315 319 319 321 322 321 322 323 326 326 327 329 332 333 332 332 333 331
310 310 309 308 307 308 307 308 311 315 316 316 318 316 314 315 317 316 315 315 315 316 317 316 318 317 321 323 323 324 324 319 322 321 320 316 317 321 323 322 321 323 324 326 325 323 325 332 334 334 333 333 336 338
310 309 309 308 308 308 307 309 313 314 315 315 317 317 316 317 316 319 317 317 317 317 317 318 318 317 320 321 322 325 322 321 327 324 322 320 322 321 334 335 332 325 322 321 322 327 334 335 335 335 333 333 335 336
310 308 309 308 308 307 309 312 313 314 315 317 317 317 315 316 318 319 317 317 317 318 317 318 319 319 320 324 323 323 325 322 327 322 327 328 322 336 337 337 336 333 332 332 337 337 337 337 336 334 333 330 337 340
309 309 308 307 307 310 312 313 314 315 316 315 314 315 317 317 314 320 321 319 318 319 320 320 319 320 321 322 322 321 324 322 322 324 327 326 328 334 331 330 331 334 335 336 336 336 334 329 331 334 336 336 336 338
308 307 307 311 311 313 313 313 315 316 317 316 316 315 313 316 315 316 317 317 319 320 320 321 322 321 321 319 318 322 321 322 324 327 328 321 331 329 328 327 327 327 333 333 334 336 337 337 333 337 338 337 337 336
309 310 312 312 313 312 312 314 316 316 318 318 317 315 315 317 317 318 318 318 323 321 321 321 320 321 322 321 318 318 323 327 326 327 327 329 328 327 327 327 328 325 331 332 334 336 338 339 338 336 330 336 335 339
313 312 313 313 312 313 313 316 316 316 318 319 320 319 317 317 319 321 321 322 321 320 320 320 319 319 320 321 322 323 325 327 329 328 328 328 329 328 326 328 328 329 330 334 334 335 336 337 336 337 335 337 336 338
314 311 312 312 313 314 315 315 315 315 317 318 320 319 319 320 320 321 321 321 321 321 319 319 321 322 318 320 322 320 323 324 326 327 327 326 327 327 326 328 328 328 328 331 334 334 336 333 332 336 338 337 336 335
312 310 311 312 313 314 315 314 315 314 317 318 318 319 320 321 321 321 321 323 321 322 322 322 323 324 325 325 326 324 324 323 326 326 325 328 327 327 327 328 327 329 327 327 334 333 333 335 330 330 334 333 332 331
311 311 311 312 313 314 314 315 314 314 316 317 318 319 320 321 321 322 322 323 323 322 323 323 321 323 324 324 324 324 325 326 326 326 326 327 327 328 327 327 326 325 325 326 330 334 331 333 332 331 333 334 328 330
311 312 313 313 314 313 314 314 314 314 316 318 319 320 320 320 320 321 322 323 323 322 321 320 320 323 324 325 325 325 326 326 326 326 327 325 326 326 326 326 326 325 326 327 332 332 331 333 334 334 330 329 329 333
311 312 312 313 314 314 315 317 317 317 318 319 320 320 320 321 322 322 322 322 323 322 319 322 324 323 322 323 323 323 324 326 326 326 326 325 324 325 325 325 326 327 328 328 332 330 331 330 331 332 333 328 329 331
311 312 312 312 314 315 316 316 317 318 319 320 321 321 321 321 319 317 318 321 322 322 321 321 322 322 321 321 322 322 322 323 324 326 326 325 324 324 324 326 326 326 327 329 332 329 327 330 331 331 333 329 329 331
311 311 312 313 314 314 315 316 317 319 318 319 318 317 318 318 317 318 319 319 321 320 322 322 322 322 322 324 324 325 325 326 325 325 324 324 325 325 327 327 327 327 327 329 329 325 327 327 327 329 329 327 330 331
313 313 315 315 315 314 316 318 320 319 317 317 317 318 317 317 318 318 319 319 320 321 323 323 324 324 324 325 325 325 325 325 326 326 326 326 327 327 328 329 328 328 329 330 329 326 326 327 325 326 326 326 329 330
315 315 315 315 317 318 319 319 317 317 317 316 317 317 317 318 318 319 319 319 319 320 323 324 324 324 324 324 324 325 325 324 325 325 326 326 327 327 327 326 326 326 327 327 327 326 325 324 325 325 325 325 326 326
314 316 316 319 319 320 318 318 317 317 317 318 318 319 319 318 319 319 318 318 321 322 321 321 321 323 323 324 324 325 325 325 325 328 328 327 327 326 325 324 323 325 326 326 326 326 326 326 326 326 324 323 324 324
315 318 319 318 318 319 318 318 317 318 319 320 319 320 317 317 317 315 317 321 322 318 318 318 318 318 321 323 323 324 325 326 326 325 325 326 325 325 324 324 324 324 324 324 324 325 325 325 324 325 326 326 326 325
319 320 321 320 320 319 319 319 320 321 319 318 315 316 317 316 316 319 321 320 320 320 321 321 321 317 315 319 321 320 320 321 323 322 323 323 323 323 321 321 322 323 324 323 323 323 323 322 324 324 325 325 324 324
320 322 322 322 321 320 317 318 316 316 316 317 316 315 315 315 316 316 321 322 322 321 319 317 316 313 312 311 309 308 311 317 318 313 313 311 312 318 319 317 321 323 322 321 322 324 324 323 322 323 323 325 326 325
321 321 321 320 319 318 317 316 316 316 316 316 315 315 314 314 315 317 317 315 314 313 314 316 316 314 312 313 312 312 311 310 310 310 310 310 310 311 311 313 315 321 324 324 324 324 324 324 324 324 324 324 324 324
322 320 319 319 320 316 316 318 317 316 315 315 314 314 313 313 313 312 312 311 312 312 312 311 311 311 309 309 309 311 311 310 311 311 311 311 310 310 311 313 315 318 320 321 323 324 324 324 324 324 324 323 322 322
322 321 321 320 320 319 320 321 316 315 315 315 315 315 315 314 312 311 311 311 311 309 308 308 307 307 308 308 309 310 310 309 309 310 310 312 312 311 311 311 311 311 312 313 314 315 316 316 317 316 316 315 315 315
322 320 321 322 322 322 323 321 321 320 317 317 315 315 315 315 315 314 311 311 310 308 308 308 307 306 307 307 308 309 309 309 309 309 309 309 311 313 312 312 312 312 311 311 311 310 311 311 311 310 310 310 309 309
Wind_Speed
22 20 20 18 17 17 18 19 17 23 24 22 20 18 17 13 9 5 7 6 3 4 8 7 6 3 2 3 2 8 3 7 6 4 2 2 1 3 3 3 1 4 4 3 3 3 3 8 2 6 6 5 7 8
22 21 21 20 18 17 16 17 18 18 27 25 21 20 18 15 10 8 8 9 7 7 7 15 16 16 16 10 3 3 2 1 1 2 2 1 1 2 1 2 5 1 5 3 6 5 3 5 1 2 8 6 7 6
21 20 20 21 17 16 16 16 16 17 20 28 23 21 19 16 13 10 11 9 6 7 11 5 1 1 5 9 11 3 2 2 3 4 2 1 1 3 1 3 3 3 2 2 2 2 2 1 3 5 8 7 5 3
20 21 20 20 17 16 15 16 15 16 17 26 24 23 20 18 14 11 10 8 6 4 2 3 2 4 3 4 6 11 8 7 7 6 0 1 1 4 3 3 2 4 5 1 2 4 4 9 10 9 10 12 11 9
20 21 21 20 18 16 13 14 15 15 19 24 23 24 21 19 15 11 10 8 5 2 3 9 10 6 7 7 3 7 11 11 4 2 0 3 3 1 1 1 3 3 3 3 4 4 2 4 7 11 13 14 13 14
20 20 20 20 18 17 11 14 15 15 23 20 20 22 21 20 16 11 5 11 9 4 4 3 4 7 1 11 6 8 6 7 6 4 4 5 4 2 1 3 7 9 2 2 1 0 5 7 7 7 9 11 10 16
20 20 21 19 16 15 11 15 14 18 23 16 18 21 20 21 19 5 3 7 11 5 2 6 9 2 4 8 10 9 7 7 8 4 5 4 3 1 2 5 5 16 8 4 7 8 9 10 9 9 11 12 14 17
17 20 20 18 17 11 13 15 15 21 18 16 17 18 22 21 16 7 6 8 9 4 2 0 4 6 2 5 5 5 4 6 5 5 2 3 1 2 4 15 20 26 29 31 28 22 18 14 13 12 7 8 14 18
17 19 19 18 15 14 17 16 21 22 17 16 19 19 20 15 7 8 7 7 7 2 2 1 1 2 7 2 3 2 4 0 2 2 4 4 1 4 8 18 22 25 22 23 13 14 15 15 10 10 10 12 16 21
16 19 17 15 16 18 16 19 24 20 20 19 22 7 6 12 13 12 5 4 3 3 2 3 2 2 7 6 2 1 1 1 1 4 3 2 4 18 22 28 27 23 15 4 5 18 17 15 13 12 12 14 15 18
14 14 14 16 18 19 18 23 22 22 25 17 5 4 19 22 7 3 3 2 2 1 4 4 6 1 3 2 0 3 1 1 1 3 1 2 4 5 13 15 20 26 32 27 23 16 7 7 9 12 17 19 20 20
12 13 17 19 19 18 22 24 24 30 12 8 15 18 14 4 3 2 2 1 2 4 4 4 3 6 2 1 2 4 1 2 4 8 2 3 4 8 13 17 17 10 3 5 5 5 7 10 14 18 21 23 21 20
14 17 17 17 18 24 26 28 30 19 32 18 6 4 3 2 4 5 6 3 2 5 7 6 2 4 3 1 4 2 2 4 10 1 3 4 11 13 19 20 19 13 8 5 6 8 12 14 12 14 19 22 25 21
16 15 18 22 23 26 28 31 26 16 7 3 5 2 3 3 4 4 4 3 6 5 11 10 5 2 2 3 2 2 2 2 3 2 4 4 13 15 15 14 19 25 18 12 10 11 11 13 13 14 18 17 15 15
19 20 24 25 23 27 33 25 13 6 5 5 4 5 5 5 4 4 9 4 1 11 17 9 5 2 2 2 1 3 1 3 4 3 1 9 11 16 17 17 15 22 18 12 13 15 14 11 10 14 13 5 2 4
26 26 24 23 26 31 23 20 9 3 2 1 2 1 1 5 1 2 9 10 10 15 11 6 3 2 0 1 1 5 3 4 2 1 3 11 13 13 14 16 15 14 14 13 12 15 14 11 11 13 9 5 5 7
26 24 23 26 31 25 21 7 2 2 3 2 1 1 2 5 4 4 9 12 12 7 2 3 3 3 3 0 2 3 3 3 5 5 6 5 7 9 8 13 13 14 16 14 15 15 13 9 7 8 7 7 6 4
29 28 28 25 23 17 11 5 4 3 2 2 2 5 5 3 3 3 6 8 9 4 7 3 5 1 3 2 2 1 3 13 14 15 11 4 3 5 7 13 13 15 18 19 15 15 13 6 4 3 2 2 5 6
30 24 19 16 19 7 2 1 2 2 2 4 4 4 3 2 2 2 3 11 7 6 5 5 2 3 3 5 8 12 12 17 20 12 13 11 5 5 6 8 12 16 19 20 15 14 11 7 5 5 7 6 7 10
24 22 15 14 10 3 2 1 2 3 3 4 4 4 1 2 2 4 4 6 7 5 2 2 3 1 3 5 6 10 11 9 13 16 14 12 11 11 14 17 18 19 15 15 11 12 8 7 8 10 7 8 11 10
22 12 9 11 6 3 1 1 2 2 4 3 5 4 2 3 3 3 3 2 3 2 2 3 5 11 14 15 14 15 16 14 13 14 17 18 18 19 21 16 14 11 12 11 7 8 8 8 10 11 8 5 6 9
10 7 4 5 4 4 2 1 3 5 2 4 3 4 4 3 3 4 7 1 2 2 4 12 16 18 21 22 21 21 22 23 24 23 21 19 22 20 17 14 12 11 9 6 5 4 7 8 9 11 5 3 2 7
6 3 2 2 2 2 1 1 2 1 1 3 2 3 3 3 5 7 1 2 1 6 14 16 17 17 19 17 15 14 14 16 19 22 23 20 16 14 11 11 11 12 9 6 4 3 5 6 8 7 6 7 7 4
1 1 1 2 3 3 2 1 0 2 2 3 2 2 3 4 7 3 1 3 7 16 10 8 8 8 6 5 8 10 12 13 12 10 10 10 9 9 7 6 5 5 3 3 4 3 4 3 8 7 6 4 6 8
2 2 2 3 3 2 1 2 2 2 2 3 2 3 3 4 2 3 2 5 18 19 17 16 16 16 15 15 14 9 9 9 8 7 7 6 6 5 3 3 1 2 6 7 6 5 4 3 3 4 5 6 10 8
2 3 3 1 1 0 1 2 1 2 2 1 1 1 2 3 3 3 5 17 16 23 25 22 22 25 28 26 23 16 8 7 9 6 5 6 5 3 9 13 15 16 14 12 9 11 12 12 15 13 10 5 5 2
2 3 4 3 1 2 4 3 2 1 2 2 1 2 3 3 3 4 10 11 19 22 26 27 29 28 27 29 32 29 21 20 20 21 16 13 12 9 12 14 16 14 13 12 8 5 8 6 11 7 7 9 7 9
2 1 2 4 3 4 3 3 1 3 3 4 3 3 2 0 2 5 8 16 16 12 14 19 22 19 26 26 25 25 25 24 22 20 19 16 15 16 15 14 9 9 11 8 6 9 7 8 9 8 6 4 4 4
5 5 5 3 4 4 7 5 4 5 3 2 3 2 2 2 2 4 7 6 6 13 16 15 15 20 24 27 27 24 17 15 15 22 21 21 20 16 10 9 7 6 5 9 7 5 6 4 3 4 3 2 4 4
7 8 6 9 5 5 5 12 12 13 20 21 23 25 27 30 27 22 21 20 19 21 22 19 14 16 21 21 23 25 25 25 25 23 22 22 20 16 13 11 8 10 7 6 5 5 5 5 6 4 3 4 4 3
6 14 11 10 6 12 12 14 16 21 25 27 30 33 30 32 28 25 23 20 18 18 19 20 19 17 16 16 15 15 18 19 17 17 16 16 16 16 18 17 14 10 9 6 6 6 6 8 8 9 7 5 5 5
6 5 5 3 4 6 7 11 17 20 20 19 16 17 15 15 12 19 18 15 16 18 17 17 20 19 13 10 12 12 10 11 12 13 14 13 12 13 15 13 16 16 15 14 13 12 10 9 8 7 7 6 6 6
12 12 7 3 2 3 4 6 5 3 6 7 11 15 15 10 6 4 13 16 15 13 12 12 13 15 14 13 13 11 9 8 9 10 11 11 10 7 5 5 7 10 12 13 11 10 9 9 9 9 10 9 9 9
Wind_Direction
247 247 244 244 247 250 243 236 236 223 214 216 220 208 215 212 212 203 188 211 235 260 282 262 259 225 16 30 67 325 24 3 24 54 116 200 157 265 336 252 152 186 157 189 87 95 254 187 138 158 213 197 234 240
237 242 239 238 243 245 240 233 234 229 214 211 213 206 206 206 205 204 196 219 247 271 275 292 279 266 265 261 280 356 121 204 73 77 12 101 335 4 54 303 339 283 188 199 169 212 259 183 212 191 201 230 219 237
235 235 233 233 234 238 229 225 230 225 220 208 207 204 201 204 199 205 202 214 258 286 294 289 60 112 218 224 218 220 160 97 54 5 176 225 266 125 109 256 307 318 59 118 86 268 307 225 245 227 214 218 220 250
230 225 227 225 223 224 224 225 226 220 217 198 200 202 197 199 200 204 210 224 253 282 313 266 331 145 157 162 200 217 221 279 312 324 22 149 208 181 210 222 171 231 2 73 297 288 303 258 243 245 234 231 249 276
223 217 220 214 214 214 221 223 218 217 200 192 193 199 194 195 194 196 200 216 235 256 269 294 316 161 192 197 217 218 227 245 278 275 99 237 241 131 311 60 260 205 185 142 233 247 202 275 266 248 258 262 272 293
211 209 212 207 210 210 219 213 207 207 183 190 193 196 190 187 177 157 174 219 225 234 307 323 299 248 149 190 182 202 201 198 202 211 238 243 232 193 190 231 248 165 191 217 225 44 274 294 290 265 273 285 292 307
203 206 201 203 209 197 214 202 203 190 181 184 190 193 186 180 172 170 166 172 185 183 274 313 323 294 216 191 201 203 232 218 218 219 230 239 225 165 144 239 198 214 227 297 271 253 248 255 256 266 269 285 289 294
200 192 195 198 193 190 195 189 192 177 178 174 181 183 186 167 163 162 137 153 168 186 240 111 275 327 120 176 197 210 197 201 217 229 243 214 225 182 243 248 253 254 257 265 264 257 260 270 273 267 262 291 307 311
184 186 189 183 183 186 180 183 175 171 165 169 172 168 137 150 147 165 152 161 174 189 202 174 204 254 4 61 199 201 202 44 233 218 239 152 225 229 240 265 269 264 252 257 252 246 269 255 245 250 278 298 307 308
173 170 172 177 174 177 175 177 171 161 162 164 152 119 119 143 143 135 126 151 184 219 232 220 239 273 351 14 45 20 11 215 288 251 144 160 251 255 265 264 271 278 268 286 277 316 307 234 246 267 288 297 292 298
163 171 179 171 170 169 174 172 159 158 155 132 119 88 138 133 131 113 118 148 167 268 225 231 211 250 3 49 288 32 182 307 325 291 96 288 282 263 341 315 299 267 262 272 290 284 255 243 264 283 288 288 288 279
169 162 161 163 163 169 168 158 156 159 140 123 117 126 128 111 103 120 175 116 191 227 206 190 202 203 211 311 86 5 81 31 248 333 5 273 263 360 17 31 36 43 295 238 183 204 242 270 284 287 286 287 283 287
154 153 157 161 162 160 157 152 160 142 127 119 102 119 171 137 82 181 179 220 212 204 189 181 145 162 142 109 72 45 41 247 322 25 239 235 347 22 31 26 16 5 354 325 310 294 284 285 277 283 287 289 282 285
146 150 149 145 152 152 152 158 144 132 108 103 98 113 174 185 223 196 190 188 207 190 164 159 108 126 124 66 133 80 263 12 316 269 247 332 358 9 20 20 15 1 353 341 335 324 302 282 278 295 306 303 276 268
134 138 136 146 145 149 157 153 146 101 68 91 173 197 203 209 221 244 238 266 79 159 148 114 69 72 19 97 57 60 298 257 221 247 310 346 6 15 16 13 2 2 335 341 337 324 318 307 305 308 301 331 349 288
132 142 138 143 151 159 152 142 128 84 86 204 262 76 125 134 297 80 141 141 139 126 105 84 102 77 338 115 145 216 215 231 309 266 316 348 346 4 13 15 1 333 344 338 325 321 320 307 303 294 291 292 274 246
132 126 150 153 156 151 145 127 73 51 8 343 249 260 170 111 131 131 130 143 145 145 120 124 134 177 137 151 245 201 218 215 242 267 266 325 334 349 346 328 320 356 355 343 347 340 334 320 317 301 271 268 236 239
126 139 154 156 157 150 145 40 43 339 309 322 35 43 66 66 91 145 166 170 163 153 151 181 126 172 199 212 249 215 326 303 292 282 275 287 297 278 314 312 331 353 355 349 341 341 349 338 325 359 5 240 234 231
136 138 140 148 162 133 91 93 321 316 297 314 359 16 42 99 176 86 146 176 191 175 172 167 153 205 217 219 242 259 272 264 269 286 292 282 294 301 310 316 326 335 341 340 332 331 322 322 316 316 297 271 258 285
142 137 108 136 135 62 99 171 288 299 316 348 349 339 335 61 74 85 88 175 182 167 194 220 216 341 3 341 310 288 289 307 258 268 291 304 303 304 301 312 317 323 327 331 324 330 330 323 329 330 320 264 269 285
139 138 98 100 98 43 355 328 294 302 336 330 357 2 53 59 57 77 91 26 189 207 240 252 272 303 305 302 296 291 287 281 268 268 283 293 301 306 308 311 315 317 311 318 310 336 343 338 349 342 312 301 288 268
116 102 71 19 30 353 306 254 285 314 288 323 2 24 49 51 40 29 330 241 236 182 323 311 311 311 303 294 285 276 273 268 265 266 268 278 291 296 299 293 291 302 311 289 267 303 342 345 351 4 352 231 309 319
122 111 9 359 341 295 356 288 292 334 50 6 35 42 30 10 357 345 7 337 330 334 328 307 301 298 297 301 296 284 279 279 271 265 261 275 282 278 280 277 284 293 288 250 246 288 332 340 344 339 356 348 315 252
357 293 293 261 239 277 300 278 350 53 55 33 33 49 15 349 355 31 334 310 313 343 9 355 318 313 321 305 293 286 281 275 273 271 267 265 275 248 271 288 309 312 273 220 237 263 308 314 16 40 31 15 44 106
263 225 229 262 222 245 259 55 35 55 74 24 36 32 359 357 26 359 316 317 333 349 35 38 29 31 17 353 358 8 255 258 268 286 297 266 255 213 173 60 39 126 106 105 108 101 99 80 32 10 58 45 87 90
248 219 193 312 20 350 84 99 93 111 105 103 70 70 33 48 29 347 341 340 352 26 45 46 45 43 38 30 23 47 72 113 135 133 104 129 156 177 140 120 101 89 93 88 87 76 84 89 78 82 104 61 19 45
261 237 225 225 192 116 94 74 101 109 147 124 68 41 48 40 337 337 343 21 66 72 62 52 42 32 29 44 44 68 61 81 89 83 82 94 93 119 127 96 68 60 56 45 74 43 28 56 18 30 85 97 92 65
264 280 171 175 196 210 160 160 132 48 51 32 71 68 77 45 329 91 113 96 89 84 45 31 25 43 51 53 57 69 68 73 83 86 85 77 58 75 83 74 78 85 61 72 91 35 35 12 31 58 100 29 310 338
34 39 43 52 84 65 47 63 64 71 87 17 87 102 114 12 349 212 155 114 26 2 18 48 78 70 65 62 57 57 57 55 59 59 56 52 56 49 43 62 87 74 95 107 96 48 35 40 83 151 181 81 197 202
36 48 73 64 48 47 60 113 98 87 98 97 97 90 79 77 82 87 82 78 79 72 69 72 79 71 61 56 55 53 52 52 52 51 49 45 44 41 32 22 35 28 40 111 95 81 60 69 52 51 106 94 97 132
64 84 80 78 70 97 98 78 97 118 114 106 100 94 88 84 81 79 81 80 77 70 65 64 63 55 45 45 50 58 54 45 43 46 48 48 44 45 50 49 46 46 68 85 85 108 132 117 114 125 127 115 112 114
87 82 83 55 64 94 84 92 116 110 107 101 98 104 99 83 75 50 51 52 56 60 57 48 42 42 44 49 39 48 70 47 33 26 26 28 34 46 53 56 53 53 51 51 56 63 70 77 82 81 78 68 48 31
120 120 102 83 105 104 100 113 113 87 105 106 108 95 80 71 76 91 52 49 45 38 36 40 41 41 39 37 39 46 47 29 5 352 347 352 4 10 16 19 36 44 48 51 48 37 33 34 37 34 32 26 18 10